Munster, IL

3:54 PM CDT on September 24, 2016 (GMT -0500)
Lansing Municipal

Weather History for KIGQ - November, 2013

Change the Weather History Date:

Tuesday, November 26, 2013

  Actual Average (KMDW) Record (KMDW)
Temperature  
Mean Temperature 28 °F 36 °F  
Max Temperature 35 °F 43 °F 68 °F (1990)
Min Temperature 19 °F 30 °F 2 °F (1930)
Degree Days  
Heating Degree Days 38 29  
Month to date heating degree days 587  
Since 1 July heating degree days 1018  
Cooling Degree Days 0 0  
Month to date cooling degree days 0  
Year to date cooling degree days 1045  
Moisture  
Dew Point 21 °F    
Average Humidity 70    
Maximum Humidity 88    
Minimum Humidity 52    
Precipitation  
Precipitation 0.00 in 0.11 in 1.20 in (1986)
Month to date precipitation 2.98  
Year to date precipitation 36.08  
Sea Level Pressure  
Sea Level Pressure 30.06 in    
Wind  
Wind Speed 8 mph (West)    
Max Wind Speed 17 mph    
Max Gust Speed 28 mph    
Visibility 10 miles    
Events Snow    
T = Trace of Precipitation, MM = Missing Value Source: NWS Daily Summary

Daily Weather History Graph

Daily Weather History Graph

Search for Another Location

Airport or City:

Trip Planner

Search our weather history database for the weather conditions in past years. The results will help you decide how hot, cold, wet, or windy it might be!

Date:

Astronomy

Nov. 26, 2013 Rise Set
Actual Time 6:52 AM CST 4:22 PM CST
Civil Twilight 6:21 AM CST 4:53 PM CST
Nautical Twilight 5:47 AM CST 5:27 PM CST
Astronomical Twilight 5:14 AM CST 6:00 PM CST
Moon No Moon Rise 12:33 PM CST (11/26)
Length of Visible Light 10h 31m
Length of Day
9h 30m
Last Quarter, 41% of the Moon is Illuminated
Nov 26
Last Quarter
Dec 2
New
Dec 9
First Quarter
Dec 17
Full
Dec 25
Last Quarter

Hourly Weather History & Observations

Time (CST) Temp. Windchill Dew Point Humidity Pressure Visibility Wind Dir Wind Speed Gust Speed Precip Events Conditions
12:15 AM 23.7 °F 16.6 °F 20.7 °F 88% 30.09 in 10.0 mi SSW 5.8 mph - N/A   Clear
12:35 AM 23.7 °F 15.6 °F 20.5 °F 87% 30.10 in 10.0 mi SSW 6.9 mph - N/A   Clear
12:55 AM 25.7 °F 17.1 °F 21.6 °F 84% 30.10 in 10.0 mi SSW 8.1 mph - N/A   Clear
1:15 AM 25.7 °F 17.1 °F 21.2 °F 83% 30.10 in 10.0 mi SSW 8.1 mph - N/A   Clear
1:35 AM 25.9 °F 18.2 °F 21.6 °F 84% 30.10 in 10.0 mi SW 6.9 mph - N/A   Mostly Cloudy
1:55 AM 27.1 °F 17.5 °F 22.1 °F 81% 30.10 in 10.0 mi SSW 10.4 mph - N/A   Overcast
2:15 AM 26.6 °F 18.2 °F 21.9 °F 82% 30.10 in 10.0 mi SSW 8.1 mph - N/A   Overcast
2:35 AM 26.4 °F 18.9 °F 21.6 °F 82% 30.10 in 10.0 mi SW 6.9 mph - N/A   Overcast
2:55 AM 27.1 °F 18.9 °F 21.7 °F 80% 30.09 in 10.0 mi SW 8.1 mph - N/A   Overcast
3:15 AM 27.5 °F 20.2 °F 21.9 °F 80% 30.09 in 10.0 mi SW 6.9 mph - N/A   Overcast
3:35 AM 28.0 °F 20.8 °F 22.1 °F 78% 30.09 in 10.0 mi SW 6.9 mph - N/A   Overcast
3:55 AM 28.4 °F 21.2 °F 22.1 °F 77% 30.09 in 10.0 mi SW 6.9 mph - N/A   Overcast
4:15 AM 29.1 °F 22.1 °F 22.1 °F 75% 30.08 in 10.0 mi SW 6.9 mph - N/A   Overcast
4:35 AM 29.1 °F 23.0 °F 22.1 °F 75% 30.08 in 10.0 mi SW 5.8 mph - N/A   Overcast
4:55 AM 29.3 °F 24.3 °F 22.5 °F 76% 30.08 in 10.0 mi SW 4.6 mph - N/A   Overcast
5:15 AM 29.3 °F 23.2 °F 22.5 °F 76% 30.08 in 10.0 mi SSW 5.8 mph - N/A   Overcast
5:35 AM 29.3 °F 23.2 °F 22.5 °F 76% 30.08 in 10.0 mi SW 5.8 mph - N/A   Overcast
5:55 AM 29.3 °F 21.5 °F 22.1 °F 75% 30.07 in 10.0 mi SW 8.1 mph - N/A   Overcast
6:15 AM 29.3 °F 22.3 °F 22.1 °F 75% 30.06 in 10.0 mi SW 6.9 mph - N/A   Overcast
6:35 AM 29.3 °F 23.2 °F 22.1 °F 75% 30.06 in 10.0 mi WSW 5.8 mph - N/A   Overcast
6:55 AM 29.7 °F 23.7 °F 22.5 °F 75% 30.07 in 10.0 mi WSW 5.8 mph - N/A   Overcast
7:15 AM 29.8 °F 26.3 °F 22.6 °F 75% 30.05 in 10.0 mi WSW 3.5 mph - N/A   Overcast
7:35 AM 30.2 °F 25.4 °F 23.0 °F 75% 30.04 in 10.0 mi West 4.6 mph - N/A   Overcast
7:55 AM 30.4 °F 26.9 °F 23.0 °F 74% 30.05 in 10.0 mi WSW 3.5 mph - N/A   Overcast
8:15 AM 30.9 °F 26.2 °F 23.5 °F 74% 30.06 in 10.0 mi WSW 4.6 mph - N/A   Overcast
8:35 AM 31.1 °F 25.4 °F 23.7 °F 74% 30.06 in 10.0 mi WSW 5.8 mph - N/A   Overcast
8:55 AM 31.6 °F 27.0 °F 23.9 °F 73% 30.05 in 10.0 mi WSW 4.6 mph - N/A   Overcast
9:15 AM 31.8 °F 27.3 °F 24.3 °F 74% 30.05 in 10.0 mi NW 4.6 mph - N/A   Overcast
9:35 AM 32.0 °F 27.5 °F 24.4 °F 74% 30.05 in 10.0 mi WSW 4.6 mph - N/A   Overcast
9:55 AM 32.4 °F 26.9 °F 25.0 °F 74% 30.05 in 10.0 mi West 5.8 mph - N/A   Overcast
10:15 AM 33.1 °F 28.7 °F 25.2 °F 73% 30.04 in 10.0 mi WSW 4.6 mph - N/A   Overcast
10:35 AM 33.6 °F 29.4 °F 25.3 °F 72% 30.05 in 10.0 mi West 4.6 mph - N/A   Overcast
10:55 AM 34.3 °F 29.2 °F 25.3 °F 70% 30.05 in 10.0 mi SW 5.8 mph - N/A   Overcast
11:15 AM 34.7 °F 28.8 °F 25.5 °F 69% 30.05 in 10.0 mi SW 6.9 mph - N/A   Overcast
11:35 AM 35.4 °F 30.5 °F 25.5 °F 67% 30.02 in 10.0 mi West 5.8 mph - N/A   Overcast
11:55 AM 35.8 °F 29.4 °F 25.0 °F 65% 30.01 in 10.0 mi WSW 8.1 mph - N/A   Overcast
12:15 PM 35.6 °F 28.0 °F 24.6 °F 64% 30.02 in 10.0 mi West 10.4 mph - N/A   Overcast
12:35 PM 35.6 °F 30.7 °F 24.6 °F 64% 30.02 in 10.0 mi West 5.8 mph - N/A   Overcast
12:55 PM 35.6 °F 31.7 °F 24.8 °F 65% 30.01 in 10.0 mi WNW 4.6 mph - N/A   Overcast
1:15 PM 35.6 °F 30.7 °F 25.0 °F 65% 30.01 in 10.0 mi WNW 5.8 mph - N/A   Overcast
1:35 PM 35.4 °F 29.0 °F 25.0 °F 66% 30.01 in 10.0 mi West 8.1 mph - N/A   Overcast
1:55 PM 34.9 °F 29.9 °F 24.8 °F 67% 30.00 in 10.0 mi WNW 5.8 mph - N/A   Overcast
2:15 PM 34.9 °F 27.1 °F 24.8 °F 67% 29.99 in 10.0 mi NW 10.4 mph - N/A   Overcast
2:35 PM 34.5 °F 26.7 °F 24.8 °F 68% 30.00 in 10.0 mi NW 10.4 mph - N/A   Overcast
2:55 PM 34.0 °F 27.2 °F 24.8 °F 69% 30.00 in 10.0 mi NW 8.1 mph - N/A   Overcast
3:15 PM 33.8 °F 24.8 °F 24.6 °F 69% 30.01 in 10.0 mi NNW 12.7 mph 17.3 mph N/A   Overcast
3:35 PM 32.5 °F 23.2 °F 21.2 °F 63% 30.02 in 10.0 mi NW 12.7 mph 17.3 mph N/A   Overcast
3:55 PM 32.0 °F 22.5 °F 21.9 °F 66% 30.02 in 10.0 mi NW 12.7 mph 18.4 mph N/A   Overcast
4:15 PM 31.1 °F 21.9 °F 23.5 °F 74% 30.03 in 7.0 mi NNW 11.5 mph 20.7 mph N/A   Light Freezing Rain
4:35 PM 31.1 °F 21.4 °F 23.5 °F 74% 30.03 in 10.0 mi NNW 12.7 mph 16.1 mph N/A   Overcast
4:55 PM 30.7 °F 23.3 °F 22.3 °F 71% 30.04 in 10.0 mi North 8.1 mph - N/A   Overcast
5:15 PM 30.2 °F 22.6 °F 21.2 °F 69% 30.04 in 10.0 mi NNW 8.1 mph - N/A   Overcast
5:35 PM 30.6 °F 22.4 °F 19.9 °F 65% 30.05 in 10.0 mi NNW 9.2 mph - N/A   Overcast
5:55 PM 29.7 °F 26.1 °F 19.4 °F 66% 30.05 in 10.0 mi NNW 3.5 mph - N/A   Mostly Cloudy
6:15 PM 29.5 °F 23.4 °F 19.4 °F 66% 30.05 in 10.0 mi NNW 5.8 mph - N/A   Overcast
6:35 PM 30.2 °F 22.6 °F 17.4 °F 59% 30.05 in 10.0 mi NW 8.1 mph - N/A   Overcast
6:55 PM 30.6 °F 21.2 °F 15.4 °F 54% 30.06 in 10.0 mi NNW 11.5 mph - N/A   Overcast
7:15 PM 30.2 °F 21.9 °F 15.8 °F 55% 30.07 in 10.0 mi NNW 9.2 mph - N/A   Overcast
7:35 PM 30.2 °F 22.6 °F 16.2 °F 56% 30.08 in 10.0 mi North 8.1 mph 17.3 mph N/A   Overcast
7:55 PM 28.2 °F 17.2 °F 20.3 °F 72% 30.09 in 10.0 mi NNW 13.8 mph 19.6 mph N/A Snow Light Snow
8:15 PM 27.3 °F 16.6 °F 19.0 °F 71% 30.09 in 10.0 mi NNW 12.7 mph 18.4 mph N/A Snow Light Snow
8:35 PM 26.8 °F 14.5 °F 19.4 °F 74% 30.09 in 10.0 mi NNW 16.1 mph 21.9 mph N/A Snow Light Snow
8:55 PM 26.1 °F 15.6 °F 17.2 °F 69% 30.10 in 10.0 mi NNW 11.5 mph 18.4 mph N/A Snow Light Snow
9:15 PM 25.5 °F 14.3 °F 12.2 °F 57% 30.11 in 10.0 mi NNW 12.7 mph 23.0 mph N/A   Overcast
9:35 PM 24.8 °F 11.9 °F 10.8 °F 55% 30.11 in 10.0 mi NNW 16.1 mph 24.2 mph N/A   Overcast
9:55 PM 23.9 °F 10.3 °F 11.1 °F 58% 30.11 in 10.0 mi NNW 17.3 mph 27.6 mph N/A   Overcast
10:15 PM 23.0 °F 10.1 °F 10.4 °F 59% 30.11 in 10.0 mi NNW 15.0 mph 24.2 mph N/A   Overcast
10:35 PM 23.0 °F 11.1 °F 8.4 °F 54% 30.12 in 10.0 mi NNW 12.7 mph 19.6 mph N/A   Overcast
10:55 PM 22.3 °F 8.2 °F 7.2 °F 52% 30.12 in 10.0 mi NW 17.3 mph 21.9 mph N/A   Overcast
11:15 PM 21.2 °F 9.5 °F 5.9 °F 52% 30.12 in 10.0 mi NNW 11.5 mph 18.4 mph N/A   Overcast
11:35 PM 20.5 °F 6.9 °F 5.2 °F 52% 30.12 in 10.0 mi NNW 15.0 mph 21.9 mph N/A   Overcast
11:55 PM 19.9 °F 8.6 °F 5.0 °F 52% 30.12 in 10.0 mi NW 10.4 mph 19.6 mph N/A   Overcast